Location: Dittelbrunn
(50.0738°N, 10.2196°E)
Time: 13:16:31
(UTC+00:00)

SPOT 5 - Pass Details

Date: 18 September 2020
Orbit: 623 x 814 km, 98.3° (Epoch: 22 October)

Event Time Altitude Azimuth Distance (km) Brightness Sun altitude
Exits shadow 20:40:08 55° 18° (NNE) 949 3.5 -29.0°
Drops below altitude 10° 20:44:26 10° 350° (N) 2,395 6.2 -29.5°
Sets 20:46:49 0° 348° (NNW) 3,342 7.1 -29.8°
